GW1213 Weather Reports


Display with metric or nautical units.
time (UTC)temp
F
wind
direction
speed
MPH
gust
MPH
rain 1hr
in
rain 24hr
in
rain mn
in
humidity
%
barometer
mb
20260506190051 67 0 3.0 11.0 0.00 0.07 0.07 80 1008.6
20260506185538 67 173 2.0 14.0 0.00 0.07 0.07 79 1008.6
20260506185038 67 0 5.0 14.0 0.00 0.07 0.07 79 1008.8
20260506184552 67 184 4.0 11.0 0.00 0.07 0.07 79 1008.8
20260506184038 67 253 3.0 11.0 0.00 0.07 0.07 79 1008.8
20260506183538 67 154 3.0 10.0 0.00 0.07 0.07 79 1008.9
20260506183051 67 284 2.0 10.0 0.00 0.07 0.07 79 1008.7
20260506182538 67 146 3.0 9.0 0.00 0.07 0.07 79 1008.9
20260506182038 67 193 3.0 10.0 0.00 0.07 0.07 79 1008.9
20260506181551 67 238 3.0 10.0 0.00 0.07 0.07 80 1009.0
20260506181038 67 238 3.0 10.0 0.00 0.07 0.07 80 1009.1
20260506180539 67 194 2.0 11.0 0.00 0.07 0.07 80 1008.9
20260506180059 67 191 3.0 12.0 0.00 0.07 0.07 80 1008.8
20260506175538 67 221 2.0 12.0 0.00 0.07 0.07 80 1009.1
20260506175038 67 188 4.0 12.0 0.00 0.07 0.07 80 1009.0
20260506174556 67 244 3.0 8.0 0.00 0.07 0.07 80 1009.0
20260506174038 66 263 2.0 10.0 0.00 0.07 0.07 80 1009.1
20260506173539 66 296 4.0 10.0 0.00 0.07 0.07 80 1009.1
20260506173051 66 194 1.0 10.0 0.00 0.07 0.07 82 1009.1
20260506172538 66 226 3.0 8.0 0.00 0.07 0.07 81 1009.1
20260506172038 66 95 1.0 8.0 0.00 0.07 0.07 82 1009.2
20260506171556 66 0 3.0 9.0 0.00 0.07 0.07 81 1009.2
20260506171052 66 181 3.0 10.0 0.00 0.07 0.07 81 1009.2
20260506170538 66 169 1.0 10.0 0.00 0.07 0.07 82 1009.2
20260506170105 65 198 4.0 10.0 0.00 0.07 0.07 82 1009.2
20260506165538 65 242 3.0 10.0 0.00 0.07 0.07 82 1009.2
20260506165039 65 144 3.0 10.0 0.00 0.07 0.07 82 1009.3
20260506164547 65 270 1.0 8.0 0.00 0.07 0.07 83 1009.4
20260506164038 65 0 2.0 11.0 0.00 0.07 0.07 83 1009.6
20260506163542 65 200 3.0 12.0 0.00 0.07 0.07 84 1009.5
20260506163106 65 204 3.0 12.0 0.00 0.07 0.07 84 1009.6
20260506162542 64 130 3.0 11.0 0.00 0.07 0.07 85 1009.3
20260506162041 64 157 3.0 11.0 0.00 0.07 0.07 85 1010.2
20260506161548 64 178 3.0 14.0 0.00 0.07 0.07 86 1010.0
20260506161042 63 204 4.0 14.0 0.00 0.07 0.07 86 1009.9
20260506160538 63 186 2.0 8.0 0.00 0.07 0.07 87 1009.9
20260506160045 63 164 1.0 8.0 0.00 0.07 0.07 88 1009.8
20260506155541 63 64 2.0 8.0 0.01 0.07 0.07 89 1009.7
20260506155038 63 190 1.0 10.0 0.01 0.07 0.07 89 1009.8
20260506154607 62 199 1.0 10.0 0.02 0.07 0.07 89 1009.9
20260506154038 62 26 2.0 9.0 0.02 0.07 0.07 89 1009.9
20260506153537 62 215 1.0 8.0 0.02 0.07 0.07 90 1009.8
20260506153059 62 185 2.0 7.0 0.02 0.07 0.07 89 1009.9
20260506152538 62 125 2.0 8.0 0.03 0.07 0.07 89 1009.9
20260506152035 62 0 3.0 9.0 0.05 0.07 0.07 89 1009.8
20260506151548 62 206 2.0 9.0 0.06 0.07 0.07 89 1009.7
20260506151038 62 348 2.0 8.0 0.06 0.07 0.07 89 1009.6
20260506150538 62 69 1.0 8.0 0.06 0.07 0.07 89 1009.7
20260506150048 62 250 3.0 8.0 0.06 0.07 0.07 88 1009.9
20260506145539 62 0 3.0 8.0 0.05 0.06 0.06 89 1010.0
20260506145038 62 360 2.0 7.0 0.05 0.06 0.06 89 1010.2
20260506144548 62 175 1.0 7.0 0.04 0.05 0.05 89 1010.3
20260506144038 62 229 1.0 7.0 0.04 0.05 0.05 88 1010.6
20260506143542 62 173 1.0 7.0 0.04 0.05 0.05 87 1010.4
20260506143059 63 193 1.0 7.0 0.04 0.05 0.05 87 1010.6
20260506142541 63 89 0.0 5.0 0.03 0.04 0.04 87 1010.6
20260506142038 63 0 2.0 7.0 0.01 0.02 0.02 86 1010.4
20260506141549 63 0 2.0 7.0 0.01 0.01 0.01 85 1010.4
20260506141041 63 132 1.0 7.0 0.01 0.01 0.01 85 1010.4
20260506140540 63 103 1.0 7.0 0.01 0.01 0.01 85 1010.2
20260506140054 63 190 2.0 7.0 0.01 0.01 0.01 85 1010.2
20260506135537 63 0 1.0 7.0 0.01 0.01 0.01 84 1010.2
20260506135037 63 0 1.0 7.0 0.01 0.01 0.01 84 1010.0
20260506134548 63 173 1.0 6.0 0.01 0.01 0.01 84 1010.1
20260506134039 63 0 0.0 7.0 0.01 0.01 0.01 83 1010.2
20260506133539 63 0 1.0 7.0 0.01 0.01 0.01 83 1010.1
20260506133048 63 161 1.0 6.0 0.01 0.01 0.01 82 1010.1
20260506132538 63 159 1.0 7.0 0.01 0.01 0.01 81 1010.1
20260506132038 64 147 1.0 7.0 0.01 0.01 0.01 80 1010.1
20260506131547 64 170 2.0 7.0 0.00 0.00 0.00 78 1010.2
20260506131038 64 271 0.0 7.0 0.00 0.00 0.00 77 1010.4
20260506130539 64 213 2.0 7.0 0.00 0.00 0.00 77 1010.4
20260506130047 64 241 0.0 7.0 0.00 0.00 0.00 77 1010.3
20260506125542 64 0 2.0 7.0 0.00 0.00 0.00 76 1010.1
20260506125042 64 163 1.0 6.0 0.00 0.00 0.00 76 1010.1
20260506124555 65 108 1.0 7.0 0.00 0.00 0.00 74 1010.1
20260506124038 65 0 1.0 10.0 0.00 0.00 0.00 74 1010.2
20260506123538 65 171 2.0 10.0 0.00 0.00 0.00 72 1009.8
20260506123051 65 256 2.0 10.0 0.00 0.00 0.00 72 1009.8
20260506122538 65 136 2.0 8.0 0.00 0.00 0.00 72 1009.7
20260506122038 65 0 1.0 8.0 0.00 0.00 0.00 71 1009.9
20260506121552 65 166 2.0 9.0 0.00 0.00 0.00 71 1009.9
20260506121038 66 188 1.0 9.0 0.00 0.00 0.00 71 1009.9
20260506120539 66 159 1.0 10.0 0.00 0.00 0.00 71 1009.8
20260506120058 66 0 1.0 11.0 0.00 0.00 0.00 70 1010.0
20260506115539 66 142 2.0 11.0 0.00 0.00 0.00 70 1010.1
20260506115038 66 272 2.0 12.0 0.00 0.00 0.00 70 1010.2
20260506114558 66 205 2.0 12.0 0.00 0.00 0.00 70 1010.1
20260506114038 66 231 2.0 10.0 0.00 0.00 0.00 70 1010.2
20260506113541 66 142 3.0 10.0 0.00 0.00 0.00 70 1010.2
20260506113050 66 199 2.0 10.0 0.00 0.00 0.00 70 1009.9
20260506112539 66 261 2.0 10.0 0.00 0.00 0.00 70 1010.0
20260506112038 66 259 2.0 8.0 0.00 0.00 0.00 70 1009.9
20260506111554 66 241 3.0 7.0 0.00 0.00 0.00 70 1009.9
20260506111038 66 166 1.0 8.0 0.00 0.00 0.00 70 1009.8
20260506110538 66 245 2.0 9.0 0.00 0.00 0.00 70 1009.8
20260506110059 66 235 2.0 14.0 0.00 0.00 0.00 70 1009.7
20260506105538 66 248 3.0 14.0 0.00 0.00 0.00 71 1009.6
20260506105038 66 189 2.0 10.0 0.00 0.00 0.00 71 1009.5
20260506104548 66 121 4.0 11.0 0.00 0.00 0.00 71 1009.6
20260506104038 66 132 3.0 11.0 0.00 0.00 0.00 71 1009.7
20260506103539 66 171 1.0 9.0 0.00 0.00 0.00 71 1009.7
20260506103048 66 243 3.0 10.0 0.00 0.00 0.00 71 1009.6
20260506102539 66 0 2.0 10.0 0.00 0.00 0.00 71 1009.8
20260506102039 66 208 2.0 7.0 0.00 0.00 0.00 71 1009.8
20260506101602 66 131 1.0 7.0 0.00 0.00 0.00 71 1009.8
20260506101040 66 202 0.0 7.0 0.00 0.00 0.00 71 1009.8
20260506100538 66 161 2.0 7.0 0.00 0.00 0.00 71 1009.7
20260506100051 66 146 1.0 5.0 0.00 0.00 0.00 70 1009.8
20260506095540 66 0 1.0 7.0 0.00 0.00 0.00 70 1009.7
20260506095038 66 180 1.0 7.0 0.00 0.00 0.00 70 1009.7
20260506094607 66 146 1.0 7.0 0.00 0.00 0.00 70 1009.7
20260506094038 66 218 2.0 13.0 0.00 0.00 0.00 70 1009.6
20260506093538 66 200 1.0 13.0 0.00 0.00 0.00 70 1009.5
20260506093054 66 200 3.0 13.0 0.00 0.00 0.00 70 1009.5
20260506092538 66 152 1.0 6.0 0.00 0.00 0.00 70 1009.6
20260506092038 66 201 1.0 6.0 0.00 0.00 0.00 69 1009.5
20260506091548 66 211 3.0 10.0 0.00 0.00 0.00 69 1009.6
20260506091038 66 189 3.0 10.0 0.00 0.00 0.00 69 1009.7
20260506090538 66 239 1.0 6.0 0.00 0.00 0.00 69 1009.7
20260506090046 66 0 1.0 6.0 0.00 0.00 0.00 69 1009.7
20260506085538 66 182 1.0 6.0 0.00 0.00 0.00 68 1009.8
20260506085038 66 0 3.0 8.0 0.00 0.00 0.00 68 1009.9
20260506084548 66 0 2.0 14.0 0.00 0.00 0.00 68 1009.9
20260506084041 66 294 2.0 14.0 0.00 0.00 0.00 68 1009.7
20260506083539 66 156 3.0 10.0 0.00 0.00 0.00 68 1009.8
20260506083052 66 302 2.0 7.0 0.00 0.00 0.00 67 1009.8
20260506082541 67 250 2.0 7.0 0.00 0.00 0.00 67 1009.8
20260506082038 67 169 2.0 7.0 0.00 0.00 0.00 67 1009.9
20260506081551 67 250 2.0 7.0 0.00 0.00 0.00 67 1009.9
20260506081038 67 0 1.0 7.0 0.00 0.00 0.00 66 1009.9
20260506080538 67 182 1.0 8.0 0.00 0.00 0.00 66 1009.9
20260506073053 68 274 2.0 10.0 0.00 0.00 0.00 65 1009.8
20260506072538 68 234 2.0 10.0 0.00 0.00 0.00 64 1009.8
20260506072039 68 252 2.0 12.0 0.00 0.00 0.00 64 1009.9
20260506071553 68 196 4.0 14.0 0.00 0.00 0.00 64 1009.9
20260506071038 68 171 4.0 14.0 0.00 0.00 0.00 64 1009.9
20260506070538 68 61 2.0 10.0 0.00 0.00 0.00 64 1010.0
20260506062038 69 0 2.0 7.0 0.00 0.00 0.00 61 1010.3
20260506061548 69 159 1.0 6.0 0.00 0.00 0.00 60 1010.2
20260506061037 70 240 1.0 6.0 0.00 0.00 0.00 60 1010.2
20260506060538 70 0 0.0 11.0 0.00 0.00 0.00 59 1010.2
20260506051038 72 264 5.0 14.0 0.00 0.00 0.00 56 1010.4
20260506050538 72 163 4.0 14.0 0.00 0.00 0.00 56 1010.5
20260506045038 72 184 3.0 9.0 0.00 0.00 0.00 55 1010.7
20260506044552 72 254 3.0 10.0 0.00 0.00 0.00 54 1010.7
20260506044038 72 203 3.0 10.0 0.00 0.00 0.00 54 1010.5
20260506043536 72 185 3.0 13.0 0.00 0.00 0.00 54 1010.6
20260506043047 73 273 3.0 13.0 0.00 0.00 0.00 53 1010.6
20260506042536 73 225 2.0 17.0 0.00 0.00 0.00 53 1010.6
20260506042037 73 203 3.0 17.0 0.00 0.00 0.00 53 1010.5
20260506041549 73 181 3.0 12.0 0.00 0.00 0.00 53 1010.7
20260506041036 73 196 3.0 12.0 0.00 0.00 0.00 52 1010.6
20260506040534 73 139 4.0 12.0 0.00 0.00 0.00 52 1010.7
20260506040058 73 273 1.0 12.0 0.00 0.00 0.00 52 1010.6
20260506035538 73 210 3.0 14.0 0.00 0.00 0.00 51 1010.7
20260506035036 73 182 4.0 14.0 0.00 0.00 0.00 51 1010.6
20260506034605 73 181 4.0 12.0 0.00 0.00 0.00 51 1010.6
20260506034034 73 246 3.0 12.0 0.00 0.00 0.00 51 1010.4
20260506033534 73 147 2.0 12.0 0.00 0.00 0.00 51 1010.4
20260506033048 73 215 4.0 12.0 0.00 0.00 0.00 51 1010.4
20260506032535 73 194 2.0 10.0 0.00 0.00 0.00 51 1010.6
20260506032036 73 220 2.0 11.0 0.00 0.00 0.00 51 1010.6
20260506031558 73 143 2.0 11.0 0.00 0.00 0.00 51 1010.6
20260506031036 73 117 1.0 10.0 0.00 0.00 0.00 51 1010.6
20260506030534 73 192 3.0 10.0 0.00 0.00 0.00 51 1010.6
20260506030052 73 196 1.0 8.0 0.00 0.00 0.00 51 1010.6
20260506025536 73 207 1.0 8.0 0.00 0.00 0.00 51 1010.6
20260506025035 73 0 0.0 5.0 0.00 0.00 0.00 51 1010.6
20260506024552 73 225 2.0 5.0 0.00 0.00 0.00 50 1010.6
20260506024034 73 10 0.0 6.0 0.00 0.00 0.00 50 1010.7
20260506023536 73 0 0.0 6.0 0.00 0.00 0.00 49 1010.8
20260506023050 73 217 2.0 6.0 0.00 0.00 0.00 49 1010.8
20260506022536 73 0 2.0 6.0 0.00 0.00 0.00 49 1010.8
20260506022035 73 0 0.0 6.0 0.00 0.00 0.00 48 1010.9
20260506021557 74 173 1.0 5.0 0.00 0.00 0.00 47 1010.8
20260506021034 74 86 1.0 7.0 0.00 0.00 0.00 47 1010.8
20260506020536 74 153 1.0 7.0 0.00 0.00 0.00 47 1010.8
20260506020052 74 188 0.0 4.0 0.00 0.00 0.00 46 1010.8
20260506015536 74 100 1.0 4.0 0.00 0.00 0.00 45 1010.8
20260506015036 75 142 0.0 5.0 0.00 0.00 0.00 45 1010.6
20260506014547 75 0 1.0 9.0 0.00 0.00 0.00 44 1010.6
20260506014039 75 149 1.0 9.0 0.00 0.00 0.00 44 1010.5
20260506013538 75 180 1.0 7.0 0.00 0.00 0.00 44 1010.6
20260506013052 75 251 1.0 7.0 0.00 0.00 0.00 43 1010.6
20260506012537 75 173 1.0 6.0 0.00 0.00 0.00 43 1010.5
20260506012039 76 154 1.0 6.0 0.00 0.00 0.00 42 1010.4
20260506011551 76 166 1.0 6.0 0.00 0.00 0.00 41 1010.3
20260506011038 76 217 1.0 6.0 0.00 0.00 0.00 41 1010.2
20260506010538 76 211 1.0 6.0 0.00 0.00 0.00 41 1010.1
20260506010057 76 0 1.0 9.0 0.00 0.00 0.00 40 1010.1
20260506005538 76 180 3.0 9.0 0.00 0.00 0.00 40 1010.1
20260506005038 77 148 2.0 8.0 0.00 0.00 0.00 39 1010.0
20260506004550 77 203 2.0 8.0 0.00 0.00 0.00 39 1009.9
20260506004038 77 223 3.0 8.0 0.00 0.00 0.00 39 1009.9
20260506003538 77 241 1.0 7.0 0.00 0.00 0.00 38 1009.8
20260506003058 77 193 2.0 7.0 0.00 0.00 0.00 38 1009.9
20260506002537 78 0 2.0 7.0 0.00 0.00 0.00 37 1009.8
20260506002038 78 0 2.0 7.0 0.00 0.00 0.00 37 1009.8
20260506001547 78 180 2.0 7.0 0.00 0.00 0.00 37 1009.8
20260506001039 78 0 2.0 9.0 0.00 0.00 0.00 37 1009.7
20260506000539 78 205 2.0 9.0 0.00 0.00 0.00 36 1009.6
20260506000100 78 238 2.0 9.0 0.00 0.00 0.00 36 1009.6
20260505235539 79 180 1.0 9.0 0.00 0.00 0.00 36 1009.6
20260505235038 79 219 2.0 9.0 0.00 0.00 0.00 35 1009.5
20260505234558 79 223 3.0 9.0 0.00 0.00 0.00 34 1009.5
20260505234039 79 193 3.0 7.0 0.00 0.00 0.00 34 1009.4
20260505233538 80 142 1.0 7.0 0.00 0.00 0.00 34 1009.4
20260505233108 80 231 2.0 13.0 0.00 0.00 0.00 33 1009.3
20260505232538 80 194 2.0 13.0 0.00 0.00 0.00 32 1009.4
20260505232038 80 235 3.0 13.0 0.00 0.00 0.00 32 1009.4
20260505231556 81 0 2.0 10.0 0.00 0.00 0.00 31 1009.4
20260505231038 81 231 2.0 10.0 0.00 0.00 0.00 31 1009.4
20260505230538 81 221 4.0 14.0 0.00 0.00 0.00 30 1009.4
20260505230048 81 205 4.0 14.0 0.00 0.00 0.00 30 1009.4
20260505225538 81 232 4.0 14.0 0.00 0.00 0.00 29 1009.4
20260505225040 81 200 5.0 14.0 0.00 0.00 0.00 29 1009.3
20260505224547 82 165 4.0 17.0 0.00 0.00 0.00 29 1009.5
20260505224037 82 276 6.0 17.0 0.00 0.00 0.00 28 1009.5
20260505223534 83 205 6.0 14.0 0.00 0.00 0.00 28 1009.4
20260505223052 83 221 4.0 12.0 0.00 0.00 0.00 27 1009.3
20260505222534 83 219 3.0 20.0 0.00 0.00 0.00 26 1009.3
20260505222036 83 250 5.0 20.0 0.00 0.00 0.00 27 1009.2
20260505221549 83 170 4.0 11.0 0.00 0.00 0.00 28 1009.2
20260505221035 83 178 3.0 13.0 0.00 0.00 0.00 28 1009.2
20260505220539 83 180 4.0 15.0 0.00 0.00 0.00 29 1009.1
20260505220048 83 232 2.0 15.0 0.00 0.00 0.00 29 1009.1
20260505215535 83 231 3.0 11.0 0.00 0.00 0.00 28 1009.2
20260505215035 83 278 1.0 11.0 0.00 0.00 0.00 28 1009.2
20260505214555 83 205 2.0 13.0 0.00 0.00 0.00 27 1009.2
20260505214035 83 286 4.0 13.0 0.00 0.00 0.00 27 1009.2
20260505213534 83 248 5.0 14.0 0.00 0.00 0.00 27 1009.3
20260505213048 83 234 3.0 14.0 0.00 0.00 0.00 26 1009.2
20260505212536 84 49 4.0 14.0 0.00 0.00 0.00 25 1009.2
20260505212035 84 239 3.0 19.0 0.00 0.00 0.00 26 1009.2
20260505211547 85 288 3.0 19.0 0.00 0.00 0.00 26 1009.1
20260505211038 85 142 6.0 18.0 0.00 0.00 0.00 24 1009.0
20260505210535 85 31 4.0 12.0 0.00 0.00 0.00 25 1009.1
20260505210051 84 246 5.0 12.0 0.00 0.00 0.00 25 1009.1
20260505205536 84 255 6.0 19.0 0.00 0.00 0.00 24 1009.1
20260505205035 84 274 5.0 19.0 0.00 0.00 0.00 24 1009.0
20260505204548 85 250 4.0 17.0 0.00 0.00 0.00 25 1009.3
20260505204035 85 261 5.0 19.0 0.00 0.00 0.00 24 1009.0
20260505203536 85 188 6.0 19.0 0.00 0.00 0.00 24 1009.0
20260505203055 86 296 3.0 16.0 0.00 0.00 0.00 25 1009.0
20260505202539 86 239 5.0 16.0 0.00 0.00 0.00 25 1009.0
20260505202037 85 62 4.0 16.0 0.00 0.00 0.00 25 1009.2
20260505201557 85 246 5.0 15.0 0.00 0.00 0.00 24 1009.2
20260505201035 86 180 5.0 15.0 0.00 0.00 0.00 25 1009.2
20260505200535 85 101 4.0 16.0 0.00 0.00 0.00 25 1009.2
20260505200051 85 287 6.0 16.0 0.00 0.00 0.00 25 1009.3
20260505195535 86 244 4.0 16.0 0.00 0.00 0.00 26 1009.3
20260505195034 86 161 3.0 14.0 0.00 0.00 0.00 27 1009.2
20260505194605 86 166 5.0 14.0 0.00 0.00 0.00 27 1009.3
20260505194035 86 205 7.0 15.0 0.00 0.00 0.00 27 1009.4
20260505193536 86 247 6.0 15.0 0.00 0.00 0.00 26 1009.6
20260505193046 86 294 4.0 17.0 0.00 0.00 0.00 25 1009.5
20260505192535 86 244 2.0 17.0 0.00 0.00 0.00 26 1009.7
20260505192035 86 240 4.0 12.0 0.00 0.00 0.00 26 1009.8
20260505191546 86 144 4.0 13.0 0.00 0.00 0.00 26 1009.8
20260505191037 86 286 3.0 13.0 0.00 0.00 0.00 27 1010.0
20260505190534 85 280 5.0 16.0 0.00 0.00 0.00 26 1010.3